TimeCDT,TemperatureF,Dew PointF,Humidity,Sea Level PressureIn,VisibilityMPH,Wind Direction,Wind SpeedMPH,Gust SpeedMPH,PrecipitationIn,Events,Conditions,WindDirDegrees,DateUTC
12:54 AM,68.0,64.9,90,29.85,10.0,SE,3.5,-,0.10,Rain-Thunderstorm,Thunderstorms and Rain,130,2013-09-20 05:54:00
1:54 AM,68.0,66.0,93,29.83,10.0,South,4.6,-,0.00,Rain-Thunderstorm,Thunderstorms and Rain,190,2013-09-20 06:54:00
2:02 AM,68.0,66.0,93,29.84,10.0,WSW,4.6,-,0.00,,Mostly Cloudy,240,2013-09-20 07:02:00
2:54 AM,68.0,66.0,93,29.83,10.0,South,5.8,-,0.00,,Scattered Clouds,190,2013-09-20 07:54:00
3:19 AM,68.0,66.0,93,29.86,10.0,SSW,6.9,-,N/A,,Mostly Cloudy,210,2013-09-20 08:19:00
3:54 AM,68.0,66.0,93,29.84,10.0,SSW,8.1,-,N/A,,Overcast,210,2013-09-20 08:54:00
4:52 AM,68.0,66.2,94,29.86,10.0,SSW,6.9,-,N/A,,Mostly Cloudy,210,2013-09-20 09:52:00
4:54 AM,68.0,66.0,93,29.85,10.0,SSW,6.9,-,N/A,,Mostly Cloudy,200,2013-09-20 09:54:00
5:54 AM,68.0,66.0,93,29.86,7.0,SW,10.4,-,0.00,Rain,Light Rain,230,2013-09-20 10:54:00
6:10 AM,68.0,66.0,93,29.87,9.0,WSW,8.1,-,0.00,,Overcast,240,2013-09-20 11:10:00
6:54 AM,68.0,66.0,93,29.85,10.0,SW,6.9,-,0.00,,Overcast,230,2013-09-20 11:54:00
7:14 AM,68.0,64.9,90,29.87,10.0,WSW,6.9,-,N/A,,Overcast,250,2013-09-20 12:14:00
7:54 AM,68.0,66.0,93,29.87,10.0,WSW,9.2,-,N/A,,Overcast,240,2013-09-20 12:54:00
8:54 AM,69.1,66.0,90,29.87,3.0,West,8.1,-,0.00,Rain,Light Rain,270,2013-09-20 13:54:00
9:14 AM,69.1,66.0,90,29.89,10.0,WSW,5.8,-,0.00,,Overcast,240,2013-09-20 14:14:00
9:21 AM,70.0,66.9,90,29.89,10.0,West,8.1,-,0.00,,Overcast,270,2013-09-20 14:21:00
9:40 AM,69.1,66.0,90,29.89,10.0,WNW,6.9,-,0.00,Rain,Light Rain,300,2013-09-20 14:40:00
9:52 AM,69.8,66.2,88,29.89,10.0,WNW,6.9,-,0.00,,Overcast,300,2013-09-20 14:52:00
9:54 AM,69.1,66.0,90,29.88,10.0,WNW,6.9,-,0.00,,Overcast,300,2013-09-20 14:54:00
10:29 AM,70.0,64.9,84,29.89,10.0,WNW,8.1,-,N/A,,Scattered Clouds,300,2013-09-20 15:29:00
10:32 AM,70.0,64.9,84,29.89,10.0,WNW,6.9,-,N/A,,Mostly Cloudy,290,2013-09-20 15:32:00
10:41 AM,70.0,64.9,84,29.89,10.0,WNW,8.1,-,N/A,,Mostly Cloudy,290,2013-09-20 15:41:00
10:50 AM,69.8,64.4,83,29.89,10.0,WNW,8.1,-,N/A,,Mostly Cloudy,300,2013-09-20 15:50:00
10:54 AM,71.1,64.0,78,29.88,10.0,WNW,5.8,-,N/A,,Mostly Cloudy,290,2013-09-20 15:54:00
11:40 AM,70.0,62.1,76,29.90,10.0,WNW,10.4,-,N/A,,Mostly Cloudy,290,2013-09-20 16:40:00
11:49 AM,69.8,62.6,78,29.90,10.0,West,11.5,-,N/A,,Scattered Clouds,280,2013-09-20 16:49:00
11:54 AM,70.0,61.0,73,29.89,10.0,West,10.4,-,N/A,,Partly Cloudy,280,2013-09-20 16:54:00
12:54 PM,69.1,59.0,70,29.88,10.0,Variable,6.9,-,N/A,,Partly Cloudy,0,2013-09-20 17:54:00
1:54 PM,70.0,57.0,63,29.87,10.0,NW,6.9,-,N/A,,Clear,310,2013-09-20 18:54:00
2:54 PM,71.1,55.9,59,29.86,10.0,West,11.5,18.4,N/A,,Partly Cloudy,270,2013-09-20 19:54:00
3:54 PM,69.1,53.1,57,29.86,10.0,WNW,9.2,-,N/A,,Clear,300,2013-09-20 20:54:00
4:54 PM,71.1,52.0,51,29.85,10.0,NW,9.2,-,N/A,,Clear,310,2013-09-20 21:54:00
5:54 PM,69.1,48.9,49,29.87,10.0,NW,11.5,19.6,N/A,,Clear,320,2013-09-20 22:54:00
6:54 PM,64.9,48.0,54,29.88,10.0,WNW,8.1,-,N/A,,Clear,300,2013-09-20 23:54:00
7:54 PM,61.0,50.0,67,29.88,10.0,NW,3.5,-,N/A,,Clear,310,2013-09-21 00:54:00
8:54 PM,61.0,50.0,67,29.89,10.0,NW,6.9,-,N/A,,Clear,310,2013-09-21 01:54:00
9:54 PM,59.0,51.1,75,29.91,10.0,NW,3.5,-,N/A,,Clear,320,2013-09-21 02:54:00
10:54 PM,57.0,51.1,81,29.91,10.0,NW,5.8,-,N/A,,Clear,310,2013-09-21 03:54:00
11:54 PM,57.0,51.1,81,29.90,10.0,West,4.6,-,N/A,,Clear,280,2013-09-21 04:54:00